Harrisburg, PA

11:25 PM EDT on October 23, 2017 (GMT -0400)
Capital City

Weather History for KCXY - March, 2013

Change the Weather History Date:

Friday, March 29, 2013

  Actual Average Record
Temperature  
Mean Temperature 46 °F -  
Max Temperature 54 °F 55 °F 86 °F (1945)
Min Temperature 35 °F 36 °F 14 °F (1923)
Degree Days  
Heating Degree Days 19    
Moisture  
Dew Point 27 °F    
Average Humidity 51    
Maximum Humidity 72    
Minimum Humidity 32    
Precipitation  
Precipitation 0.00 in - - ()
Sea Level Pressure  
Sea Level Pressure 30.20 in    
Wind  
Wind Speed 7 mph (WNW)    
Max Wind Speed 16 mph    
Max Gust Speed 16 mph    
Visibility 10 miles    
Events      
Averages and records for this station are not official NWS values.
T = Trace of Precipitation, MM = Missing Value Source: NWS Daily Summary

Daily Weather History Graph

Daily Weather History Graph

Search for Another Location

Airport or City:

Trip Planner

Search our weather history database for the weather conditions in past years. The results will help you decide how hot, cold, wet, or windy it might be!

Date:

Astronomy

Mar. 29, 2013 Rise Set
Actual Time 6:55 AM EDT 7:28 PM EDT
Civil Twilight 6:28 AM EDT 7:56 PM EDT
Nautical Twilight 5:56 AM EDT 8:28 PM EDT
Astronomical Twilight 5:23 AM EDT 9:01 PM EDT
Moon 10:27 PM EDT (3/29) 8:02 AM EDT (3/29)
Length of Visible Light 13h 27m
Length of Day
12h 33m
Waning Gibbous, 93% of the Moon is Illuminated
Mar 29
Waning Gibbous
Apr 3
Last Quarter
Apr 10
New
Apr 18
First Quarter
Apr 25
Full

Hourly Weather History & Observations

Time (EDT) Temp. Windchill Dew Point Humidity Pressure Visibility Wind Dir Wind Speed Gust Speed Precip Events Conditions
12:56 AM 42.1 °F 38.4 °F 28.9 °F 60% 30.22 in 10.0 mi WNW 5.8 mph - N/A   Overcast
1:56 AM 42.1 °F 38.4 °F 28.9 °F 60% 30.23 in 10.0 mi WNW 5.8 mph - N/A   Overcast
2:56 AM 42.1 °F 38.4 °F 28.0 °F 58% 30.23 in 10.0 mi WNW 5.8 mph - N/A   Overcast
3:56 AM 41.0 °F 38.0 °F 28.0 °F 60% 30.22 in 10.0 mi WNW 4.6 mph - N/A   Overcast
4:56 AM 42.1 °F 37.7 °F 27.0 °F 55% 30.22 in 10.0 mi NW 6.9 mph - N/A   Overcast
5:56 AM 41.0 °F 38.0 °F 27.0 °F 57% 30.22 in 10.0 mi WNW 4.6 mph - N/A   Overcast
6:56 AM 39.0 °F 35.7 °F 26.1 °F 60% 30.22 in 10.0 mi WNW 4.6 mph - N/A   Mostly Cloudy
7:56 AM 41.0 °F 36.4 °F 28.0 °F 60% 30.24 in 10.0 mi WNW 6.9 mph - N/A   Clear
8:56 AM 43.0 °F 38.2 °F 28.9 °F 58% 30.24 in 10.0 mi WNW 8.1 mph - N/A   Scattered Clouds
9:56 AM 45.0 °F 40.6 °F 30.0 °F 56% 30.23 in 10.0 mi NW 8.1 mph - N/A   Overcast
10:56 AM 46.0 °F 41.0 °F 30.0 °F 54% 30.23 in 10.0 mi WNW 10.4 mph - N/A   Overcast
11:56 AM 46.9 °F - 30.0 °F 52% 30.22 in 10.0 mi North 9.2 mph - N/A   Overcast
12:56 PM 51.1 °F - 28.9 °F 43% 30.19 in 10.0 mi North 9.2 mph - N/A   Overcast
1:56 PM 52.0 °F - 24.1 °F 34% 30.16 in 10.0 mi NNW 11.5 mph 16.1 mph N/A   Mostly Cloudy
2:56 PM 52.0 °F - 24.1 °F 34% 30.15 in 10.0 mi NNW 9.2 mph - N/A   Overcast
3:56 PM 52.0 °F - 24.1 °F 34% 30.14 in 10.0 mi WNW 12.7 mph - N/A   Overcast
4:56 PM 53.1 °F - 24.1 °F 32% 30.13 in 10.0 mi NW 16.1 mph - N/A   Partly Cloudy
5:56 PM 51.1 °F - 25.0 °F 36% 30.14 in 10.0 mi NW 10.4 mph - N/A   Mostly Cloudy
6:56 PM 50.0 °F - 27.0 °F 41% 30.15 in 10.0 mi NW 6.9 mph - N/A   Mostly Cloudy
7:56 PM 48.9 °F - 26.1 °F 41% 30.16 in 10.0 mi NW 8.1 mph - N/A   Partly Cloudy
8:56 PM 45.0 °F 43.5 °F 27.0 °F 49% 30.18 in 10.0 mi West 3.5 mph - N/A   Scattered Clouds
9:56 PM 39.9 °F 37.8 °F 28.0 °F 63% 30.19 in 10.0 mi WSW 3.5 mph - N/A   Mostly Cloudy
10:56 PM 39.0 °F 35.7 °F 28.0 °F 65% 30.19 in 10.0 mi WSW 4.6 mph - N/A   Clear
11:56 PM 35.1 °F - 27.0 °F 72% 30.19 in 10.0 mi Calm Calm - N/A   Clear